Regional Weather Roundup
Issued by NWS

Home | Current Version | Previous Version | Text Only | Print | Product List | Glossary Off
Versions: 1 2 3 4 5 6 7 8 9 10 11 12 13 14 15 16 17 18 19 20 21 22 23 24 25 26 27 28 29 30 31 32 33 34 35 36 37 38 39 40 41 42 43 44 45 46 47 48 49 50

000
ASUS43 KLOT 240410
RWRIL

ILLINOIS REGIONAL WEATHER ROUNDUP
NATIONAL WEATHER SERVICE CHICAGO/ROMEOVILLE IL
1100 PM CDT WED JUL 23 2014

NOTE: "FAIR" INDICATES FEW OR NO CLOUDS BELOW 12,000 FEET WITH NO
SIGNIFICANT WEATHER AND/OR OBSTRUCTIONS TO VISIBILITY.

* THESE STATIONS ARE NOT UNDER NWS QUALITY CONTROL. THEY ALSO MAY NOT
  REPORT WEATHER SUCH AS PRECIPITATION OR FOG.

ILZ001-002-007-009-015-016-024-240500-
NORTHWEST ILLINOIS

CITY           SKY/WX    TMP DP  RH WIND       PRES   REMARKS
MOLINE         CLEAR     63  58  83 CALM      30.14R
STERLING*      PTCLDY    61  55  82 E6        30.17R
SAVANNA*       MOCLDY    66  58  75 E5        30.16R
$$

ILZ003-004-008-010-011-017-018-240500-
NORTH CENTRAL ILLINOIS

CITY           SKY/WX    TMP DP  RH WIND       PRES   REMARKS
ROCKFORD       PTCLDY    62  52  69 CALM      30.20R
FREEPORT*      PTCLDY    58  55  87 E5        30.20R
ROCHELLE*      CLEAR     60  53  77 NE5       30.17S
DE KALB*       CLEAR     56  49  78 NE5       30.17S
PERU*          CLEAR     62  55  77 E7        30.16S
$$

ILZ005-006-012>014-019>023-240500-
NORTHEAST ILLINOIS

CITY           SKY/WX    TMP DP  RH WIND       PRES   REMARKS
CHICAGO-OHARE  CLEAR     62  48  60 N8        30.14R
CHICAGO-MIDWAY CLEAR     65  52  62 N14       30.13S
AURORA         CLEAR     58  48  69 N6        30.16S
LANSING*       CLEAR     61  53  73 N7        30.13S
JOLIET*        CLEAR     60  49  65 N5        30.15S
WAUKEGAN       CLEAR     59  50  72 N6        30.15S
DUPAGE AIRPORT CLEAR     56  48  74 N7        30.14F
KANKAKEE*      CLEAR     60  51  72 N3        30.14R
WHEELING       CLEAR     60  50  69 N5        30.16S
MORRIS*        CLEAR     58  53  83 CALM      30.14S
ROMEOVILLE*    CLEAR     59  49  68 N8        30.14S
NORTHERLY ISL    N/A     62  54  74 N12         N/A
$$

LMZ740>746-240500-
SOUTHERN LAKE MICHIGAN

STATION/POSITION SKY/WX   TEMP    WIND        PRES    VSBY  WAVE
                          AIR SEA DIR/SP/G                  HT/PER
                          (F)     (DEG/KT/KT) (MB)    (MI)  (FT/S)
SOUTHERN BUOY              60 59   20/ 12/ 14 1020.4R         4/ 6
WAUKEGAN HARBOR            61     360/ 12/ 16 1022.0R
HARRISON CRIB              63      10/ 18/ 20   N/A
BURNHAM HARBOR             62     340/ 10/ 16   N/A
CALUMET HARBOR             62     350/  9/ 13 1019.1F
MICHIGAN CITY              65      20/ 18/ 20   N/A
MICHIGAN CITY 6N           66 68   40/ 16/ 19   N/A           8/ 2
ST. JOSEPH                 57 50   30/ 10/ 14   N/A           6/ 2
$$

ILZ025>027-034>036-040-047-049-050-058-095>099-240500-
WEST-CENTRAL ILLINOIS

CITY           SKY/WX    TMP DP  RH WIND       PRES   REMARKS
QUINCY         CLEAR     66  58  75 N3        30.14S
GALESBURG*     CLEAR     60  57  89 CALM      30.15S
MACOMB*        CLEAR     60  58  96 CALM      30.17S
JACKSONVILLE*  CLEAR     65  59  81 NE3       30.15R
PITTSFIELD*    CLEAR     63  59  87 CALM      30.15S
$$

ILZ028>032-037-038-041>044-048-051>054-059>061-240500-
CENTRAL ILLINOIS

CITY           SKY/WX    TMP DP  RH WIND       PRES   REMARKS
PONTIAC        CLEAR     59  55  88 NE5       30.15R
PEORIA         CLEAR     68  54  60 E8        30.15R
LACON*         CLEAR     62  55  76 E8        30.15R
LINCOLN*       CLEAR     61  55  82 CALM      30.12S
SPRINGFIELD    CLEAR     65  56  72 E6        30.14R
TAYLORVILLE    CLEAR     64  50  59 NE8       30.13S
$$

ILZ033-039-045-046-055>057-062-063-240500-
EAST-CENTRAL ILLINOIS

CITY           SKY/WX    TMP DP  RH WIND       PRES   REMARKS
CHAMPAIGN      CLEAR     61  53  75 N8        30.12F
DANVILLE*      CLEAR     56  52  87 N9        30.07F
RANTOUL*       CLEAR     62  52  69 N9        30.13S
MATTOON        CLEAR     59  50  72 N7        30.10F
PARIS*         CLEAR     59  51  74 N5        30.10S
$$

ILZ079-100>102-240500-
SOUTHWEST ILLINOIS

CITY           SKY/WX    TMP DP  RH WIND       PRES   REMARKS
ALTON          CLEAR     66  62  86 CALM      30.12S
BELLEVILLE     CLEAR     68  60  76 N3        30.10S
CAHOKIA*       CLEAR     70  60  70 NE7       30.11S
SPARTA*        CLEAR     64  59  82 N6        30.11S
$$

ILZ064>066-069>071-074>076-080>082-084>086-088>090-092>094-240500-
SOUTH-CENTRAL ILLINOIS

CITY           SKY/WX    TMP DP  RH WIND       PRES   REMARKS
CARBONDALE     MOCLDY    71  58  63 N9        30.08R
CAIRO*         CLOUDY    74  70  86 N3        30.05S
EFFINGHAM*     CLEAR     62  47  60 N3        30.11S
MARION         MOCLDY    72  61  68 N15G21    30.08S
MT. VERNON     CLEAR     66  54  63 N5        30.10S
CENTRALIA*     CLEAR     64  51  62 N6        30.11S
SALEM*         CLEAR     65  55  69 N6        30.11S
METROPOLIS*    PTCLDY    72  69  89 CALM      30.03F
$$

ILZ067-068-072-073-078-083-087-091-240500-
SOUTHEAST ILLINOIS

CITY           SKY/WX    TMP DP  RH WIND       PRES   REMARKS
LAWRENCEVILLE  CLEAR     64  55  72 N10       30.07S
FLORA*         CLEAR     62  52  70 N7        30.10F
FAIRFIELD*     CLEAR     64  59  82 N5        30.08F
HARRISBURG*    MOCLDY    70  61  73 N8        30.08R
ROBINSON*      CLEAR     63  53  70 N7        30.09F
CARMI*         CLEAR     70  61  73 N9G17     30.06S
$$

ABBREVIATIONS USED IN REMARKS
   TC - TEMPERATURE IN CELSIUS
  WCI - WIND CHILL INDEX
   HX - HEAT INDEX
  VSB - VISIBILITY
$$




USA.gov is the U.S. government's official web portal to all federal, state and local government web resources and services.